Flora, IL

8:47 PM CST on November 22, 2017 (GMT -0600)
Flora Municipal

Weather History for KFOA - March, 2014

Change the Weather History Date:

Monday, March 17, 2014

  Actual Average (KSLO) Record (KSLO)
Temperature  
Mean Temperature 33 °F -  
Max Temperature 42 °F 54 °F 79 °F (2012)
Min Temperature 24 °F 32 °F 19 °F (1976)
Degree Days  
Heating Degree Days 32    
Moisture  
Dew Point 22 °F    
Average Humidity 68    
Maximum Humidity 93    
Minimum Humidity 53    
Precipitation  
Precipitation 0.00 in - - ()
Sea Level Pressure  
Sea Level Pressure 29.91 in    
Wind  
Wind Speed 7 mph (ENE)    
Max Wind Speed 13 mph    
Max Gust Speed 16 mph    
Visibility 10 miles    
Events      
Averages and records for this station are not official NWS values.
T = Trace of Precipitation, MM = Missing Value Source: NWS Daily Summary

Daily Weather History Graph

Daily Weather History Graph

Search for Another Location

Airport or City:

Trip Planner

Search our weather history database for the weather conditions in past years. The results will help you decide how hot, cold, wet, or windy it might be!

Date:

Astronomy

Mar. 17, 2014 Rise Set
Actual Time 7:01 AM CDT 7:02 PM CDT
Civil Twilight 6:35 AM CDT 7:29 PM CDT
Nautical Twilight 6:04 AM CDT 8:00 PM CDT
Astronomical Twilight 5:33 AM CDT 8:31 PM CDT
Moon 8:18 PM CDT (3/17) 7:18 AM CDT (3/17)
Length of Visible Light 12h 53m
Length of Day
12h 00m
Full, 99% of the Moon is Illuminated
Mar 17
Full
Mar 23
Last Quarter
Mar 30
New
Apr 7
First Quarter
Apr 15
Full

Hourly Weather History & Observations

Time (CDT) Temp. Windchill Dew Point Humidity Pressure Visibility Wind Dir Wind Speed Gust Speed Precip Events Conditions
12:17 AM 26.6 °F 19.1 °F 15.8 °F 64% 30.02 in 10.0 mi NNE 6.9 mph - N/A   Clear
12:37 AM 26.6 °F 16.2 °F 15.8 °F 64% 30.02 in 10.0 mi NNE 11.5 mph - N/A   Clear
12:57 AM 26.6 °F 17.5 °F 15.8 °F 64% 30.02 in 10.0 mi NNE 9.2 mph - N/A   Clear
1:17 AM 26.6 °F 17.5 °F 15.8 °F 64% 30.02 in 10.0 mi North 9.2 mph - N/A   Clear
1:37 AM 26.6 °F 15.7 °F 14.0 °F 59% 30.03 in 10.0 mi NNE 12.7 mph - N/A   Clear
1:59 AM 26.6 °F 16.2 °F 15.8 °F 64% 30.03 in 10.0 mi North 11.5 mph - N/A   Clear
2:17 AM 26.6 °F 15.7 °F 14.0 °F 59% 30.02 in 10.0 mi NNE 12.7 mph 16.1 mph N/A   Clear
2:38 AM 26.6 °F 17.5 °F 14.0 °F 59% 29.99 in 10.0 mi NNE 9.2 mph - N/A   Clear
2:58 AM 26.6 °F 16.2 °F 12.2 °F 55% 29.98 in 10.0 mi NNE 11.5 mph - N/A   Clear
3:17 AM 26.6 °F 16.8 °F 12.2 °F 55% 29.98 in 10.0 mi NNE 10.4 mph - N/A   Clear
3:39 AM 26.6 °F 16.8 °F 14.0 °F 59% 29.98 in 10.0 mi NNE 10.4 mph - N/A   Scattered Clouds
3:58 AM 26.6 °F 16.8 °F 12.2 °F 55% 29.98 in 10.0 mi NNE 10.4 mph - N/A   Clear
4:18 AM 26.6 °F 16.2 °F 12.2 °F 55% 29.96 in 10.0 mi NE 11.5 mph - N/A   Clear
4:38 AM 26.6 °F 17.5 °F 12.2 °F 55% 29.95 in 10.0 mi NNE 9.2 mph - N/A   Clear
4:58 AM 24.8 °F 14.0 °F 14.0 °F 64% 29.94 in 10.0 mi NE 11.5 mph - N/A   Clear
5:18 AM 24.8 °F 17.9 °F 14.0 °F 64% 29.94 in 10.0 mi NE 5.8 mph - N/A   Clear
5:38 AM 24.8 °F 16.9 °F 15.8 °F 69% 29.94 in 10.0 mi NE 6.9 mph - N/A   Clear
5:58 AM 24.8 °F 16.9 °F 15.8 °F 69% 29.94 in 10.0 mi NE 6.9 mph - N/A   Clear
6:19 AM 24.8 °F 16.1 °F 15.8 °F 69% 29.96 in 10.0 mi NE 8.1 mph - N/A   Scattered Clouds
6:38 AM 24.8 °F 16.9 °F 15.8 °F 69% 29.95 in 10.0 mi NE 6.9 mph - N/A   Scattered Clouds
6:58 AM 24.8 °F 16.9 °F 15.8 °F 69% 29.95 in 10.0 mi NE 6.9 mph - N/A   Scattered Clouds
7:18 AM 24.8 °F 16.9 °F 15.8 °F 69% 29.95 in 10.0 mi NE 6.9 mph - N/A   Scattered Clouds
7:38 AM 24.8 °F 16.9 °F 17.6 °F 74% 29.95 in 10.0 mi NNE 6.9 mph - N/A   Clear
7:58 AM 24.8 °F 19.1 °F 17.6 °F 74% 29.95 in 10.0 mi NNE 4.6 mph - N/A   Clear
8:18 AM 24.8 °F 20.5 °F 17.6 °F 74% 29.96 in 10.0 mi NNE 3.5 mph - N/A   Clear
8:38 AM 26.6 °F 20.0 °F 17.6 °F 69% 29.97 in 10.0 mi NE 5.8 mph - N/A   Clear
8:58 AM 26.6 °F 22.6 °F 17.6 °F 69% 29.97 in 10.0 mi North 3.5 mph - N/A   Clear
9:19 AM 26.6 °F 21.2 °F 17.6 °F 69% 29.97 in 10.0 mi North 4.6 mph - N/A   Clear
9:38 AM 26.6 °F - 17.6 °F 69% 29.96 in 10.0 mi Calm Calm - N/A   Clear
9:58 AM 26.6 °F 21.2 °F 19.4 °F 74% 29.95 in 10.0 mi ENE 4.6 mph - N/A   Clear
10:18 AM 28.4 °F 24.6 °F 19.4 °F 69% 29.95 in 10.0 mi NNE 3.5 mph - N/A   Clear
10:38 AM 28.4 °F - 19.4 °F 69% 29.95 in 10.0 mi Calm Calm - N/A   Clear
10:58 AM 28.4 °F - 19.4 °F 69% 29.94 in 10.0 mi Calm Calm - N/A   Clear
11:18 AM 30.2 °F 26.7 °F 21.2 °F 69% 29.94 in 10.0 mi North 3.5 mph - N/A   Clear
11:38 AM 30.2 °F - 21.2 °F 69% 29.93 in 10.0 mi Calm Calm - N/A   Clear
11:58 AM 32.0 °F 28.7 °F 21.2 °F 64% 29.93 in 10.0 mi South 3.5 mph - N/A   Clear
12:18 PM 33.8 °F - 23.0 °F 65% 29.92 in 10.0 mi Calm Calm - N/A   Clear
12:38 PM 33.8 °F - 23.0 °F 65% 29.92 in 10.0 mi Calm Calm - N/A   Clear
12:58 PM 35.6 °F 32.8 °F 24.8 °F 65% 29.91 in 10.0 mi ESE 3.5 mph - N/A   Clear
1:18 PM 35.6 °F 29.9 °F 26.6 °F 70% 29.90 in 10.0 mi SE 6.9 mph - N/A   Clear
1:38 PM 35.6 °F - 26.6 °F 70% 29.89 in 10.0 mi Calm Calm - N/A   Clear
1:59 PM 37.4 °F 32.8 °F 26.6 °F 65% 29.88 in 10.0 mi South 5.8 mph - N/A   Clear
2:18 PM 39.2 °F 35.0 °F 26.6 °F 61% 29.86 in 10.0 mi SE 5.8 mph - N/A   Clear
2:38 PM 39.2 °F 35.0 °F 26.6 °F 61% 29.86 in 10.0 mi SSE 5.8 mph - N/A   Clear
2:58 PM 39.2 °F - 26.6 °F 61% 29.85 in 10.0 mi Calm Calm - N/A   Clear
3:18 PM 39.2 °F 37.0 °F 26.6 °F 61% 29.85 in 10.0 mi South 3.5 mph - N/A   Clear
3:38 PM 41.0 °F 39.0 °F 26.6 °F 57% 29.86 in 10.0 mi SE 3.5 mph - N/A   Clear
3:58 PM 41.0 °F - 26.6 °F 57% 29.86 in 10.0 mi Calm Calm - N/A   Clear
4:18 PM 42.8 °F 40.1 °F 28.4 °F 57% 29.85 in 10.0 mi SSE 4.6 mph - N/A   Clear
4:38 PM 42.8 °F 41.1 °F 26.6 °F 53% 29.84 in 10.0 mi SSE 3.5 mph - N/A   Clear
4:58 PM 42.8 °F 41.1 °F 26.6 °F 53% 29.84 in 10.0 mi South 3.5 mph - N/A   Clear
5:21 PM 42.8 °F 40.1 °F 28.4 °F 57% 29.82 in 10.0 mi East 4.6 mph - N/A   Clear
5:38 PM 42.8 °F 39.3 °F 28.4 °F 57% 29.82 in 10.0 mi East 5.8 mph - N/A   Clear
5:58 PM 42.8 °F 40.1 °F 28.4 °F 57% 29.83 in 10.0 mi East 4.6 mph - N/A   Clear
6:18 PM 42.8 °F 40.1 °F 28.4 °F 57% 29.83 in 10.0 mi East 4.6 mph - N/A   Clear
6:38 PM 41.0 °F 38.0 °F 28.4 °F 61% 29.83 in 10.0 mi East 4.6 mph - N/A   Clear
6:58 PM 37.4 °F 32.8 °F 28.4 °F 70% 29.83 in 10.0 mi SE 5.8 mph - N/A   Clear
7:20 PM 37.4 °F - 28.4 °F 70% 29.84 in 10.0 mi Calm Calm - N/A   Clear
7:38 PM 37.4 °F - 28.4 °F 70% 29.84 in 10.0 mi Calm Calm - N/A   Clear
7:58 PM 35.6 °F - 28.4 °F 75% 29.85 in 10.0 mi Calm Calm - N/A   Clear
8:18 PM 33.8 °F 30.8 °F 28.4 °F 81% 29.85 in 10.0 mi SE 3.5 mph - N/A   Clear
8:38 PM 35.6 °F 29.9 °F 28.4 °F 75% 29.85 in 10.0 mi SSE 6.9 mph - N/A   Clear
8:58 PM 33.8 °F 29.6 °F 28.4 °F 81% 29.85 in 10.0 mi SE 4.6 mph - N/A   Clear
9:18 PM 32.0 °F - 28.4 °F 87% 29.86 in 10.0 mi Calm Calm - N/A   Clear
9:38 PM 33.8 °F - 28.4 °F 81% 29.86 in 10.0 mi Calm Calm - N/A   Clear
9:58 PM 30.2 °F - 28.4 °F 93% 29.86 in 10.0 mi Calm Calm - N/A   Clear
10:18 PM 32.0 °F - 28.4 °F 87% 29.86 in 10.0 mi Calm Calm - N/A   Clear
10:38 PM 30.2 °F - 26.6 °F 86% 29.87 in 10.0 mi Calm Calm - N/A   Clear
10:58 PM 28.4 °F 24.6 °F 26.6 °F 93% 29.87 in 10.0 mi SE 3.5 mph - N/A   Clear
11:17 PM 28.4 °F 23.3 °F 26.6 °F 93% 29.86 in 10.0 mi SE 4.6 mph - N/A   Clear
11:38 PM 30.2 °F 25.4 °F 28.4 °F 93% 29.87 in 10.0 mi SSE 4.6 mph - N/A   Clear
11:58 PM 30.2 °F 26.7 °F 28.4 °F 93% 29.87 in 10.0 mi SE 3.5 mph - N/A   Clear